Starlink 35596

operational
NORAD ID: 66085 Int'l Des: 2025-236 Owner: SPXS Country: US Constellation: starlink
NOTLE

About Starlink 35596

Description loading...

Live Position

Loading 3D Globe...

Upcoming Passes

Altitude History

Altitude vs Time

uPlot chart will show altitude changes over time

Two-Line Element Set

1 66085C 25236A 25293.06229167 .00535910 00000+0 82471-3 0 2931
2 66085 53.1613 48.3598 0008616 264.7610 239.3813 16.02944002 18
Epoch: Oct 20, 2025 • Age: 14 hours

Current Status

Altitude 265.9 km
Velocity 7.75 km/s
Sub-Earth Point -8.30°S, 2.13°W
Launch Date Oct 19, 2025
Age 1 days
Type internet

Technical Details

Classification Payload
Mass 575.00 kg
Dry Mass 530.00 kg
Total Mass 575.00 kg
Length 0.30 m
Diameter 4.10 m
Span 29.00 m
Shape Box + pan
Manufacturer SPXS
Bus Type Starlink V2MO
Phase Status In Orbit
Owner/State SPXS/US

Large Constellations

Loading constellations...